[[{"header":{"parameterUnit":"m.s-1","parameterCategory":1,"la1":30.2991,"la2":30.254,"lo1":-89.0895,"lo2":-89.0444,"dy":0.0017,"dx":0.0017,"nx":28,"ny":28,"refTime":"2025-05-01T09:00:00:Z","depth":0,"parameterNumber":2,"parameterNumberName":"U-component_of_WINDS"},"data":[0,0,0,0,0,0,0,0,0,0,0,0,0,0,0,0,0,0,0,0,0,0,0,0,0,0,0,0,0,0,0,0,0,0,0,0,0,0,0,0,0,0,0,0,0,0,0,0,0,0,0,0,0,0,0,0,0,0,-1.2463,-1.2465,0,-1.2566,-1.2567,-1.2568,-1.2605,-1.2604,-1.2604,-1.2604,-1.2707,-1.271,-1.2713,0,0,0,0,0,0,0,0,0,0,0,0,0,-1.2299,-1.2302,-1.2463,-1.2465,-1.2466,-1.2566,-1.2567,-1.2569,-1.2605,-1.2604,-1.2604,-1.2603,-1.2706,-1.2709,-1.2713,0,0,0,0,0,0,0,0,0,0,0,0,0,-1.2383,-1.2303,-1.2463,-1.2496,-1.25,-1.2566,-1.2567,-1.2569,-1.2605,-1.2604,-1.2604,-1.2603,-1.2704,-1.2709,-1.2714,-1.2753,0,0,-1.2728,-1.273,0,0,0,0,0,0,0,0,-1.2378,-1.2389,-1.249,-1.2494,-1.2498,-1.2572,-1.2547,-1.2631,-1.2605,-1.2565,-1.2604,-1.2603,-1.2662,-1.267,-1.2691,-1.2758,-1.2763,-1.2728,-1.2731,-1.2733,-1.2734,0,0,0,0,0,0,0,-1.2372,-1.2385,-1.2504,-1.2491,-1.2497,-1.2506,-1.2517,-1.2563,-1.2615,-1.2568,-1.2571,-1.2583,-1.2664,-1.2686,-1.2693,-1.2764,-1.2728,-1.2732,-1.2735,-1.2737,-1.2872,-1.2873,0,0,0,0,0,0,-1.2361,-1.2379,-1.2501,-1.2507,-1.2436,-1.2509,-1.2522,-1.2549,-1.2615,-1.2625,-1.2583,-1.2584,-1.2678,-1.2688,-1.2697,-1.275,-1.2733,-1.2737,-1.274,-1.2871,-1.2872,-1.2873,0,0,0,0,0,0,-1.2357,-1.2371,-1.2497,-1.2444,-1.2461,-1.2513,-1.2543,-1.2551,-1.2573,-1.2626,-1.2636,-1.2596,-1.2678,-1.2691,-1.274,-1.2754,-1.2739,-1.2744,-1.287,-1.2872,-1.2873,-1.2854,0,0,0,0,0,0,-1.2352,-1.237,-1.2385,-1.2444,-1.2463,-1.2537,-1.2544,-1.2554,-1.2581,-1.2583,-1.2641,-1.265,-1.2679,-1.2733,-1.2744,-1.276,-1.2747,-1.2869,-1.2871,-1.2872,-1.2853,-1.2854,-1.2855,0,0,0,0,0,-1.2346,-1.2375,-1.2386,-1.24,-1.2484,-1.2538,-1.2549,-1.2583,-1.2582,-1.2598,-1.2633,-1.2648,-1.275,-1.2737,-1.2751,-1.2768,-1.2869,-1.287,-1.2872,-1.2853,-1.2854,-1.2855,0,0,0,0,0,0,-1.2315,-1.2383,-1.2396,-1.2444,-1.2485,-1.2544,-1.2565,-1.2582,-1.2624,-1.2624,-1.2663,-1.2676,-1.2723,-1.275,-1.2735,-1.2811,-1.281,-1.2815,-1.2791,-1.2792,-1.2793,-1.2785,-1.2751,0,0,0,0,0,-1.2314,-1.2352,-1.241,-1.2447,-1.2467,-1.2513,-1.2537,-1.256,-1.2604,-1.2621,-1.2659,-1.2701,-1.2743,-1.2769,-1.281,-1.2858,-1.2871,-1.2876,-1.2877,-1.2877,-1.2881,-1.2909,-1.2913,-1.2879,-1.2879,-1.2879,0,0,-1.2311,-1.2353,-1.2375,-1.2442,-1.2476,-1.2515,-1.2527,-1.2567,-1.2597,-1.2627,-1.2676,-1.2706,-1.2755,-1.2804,-1.2827,-1.2828,-1.2893,-1.288,-1.2879,-1.2883,-1.2912,-1.2915,-1.2917,-1.288,-1.288,-1.288,0,0,-1.2327,-1.2362,-1.2398,-1.2433,-1.2486,-1.2516,-1.2525,-1.2582,-1.2603,-1.2654,-1.2678,-1.2714,-1.2784,-1.2819,-1.2846,-1.2878,-1.2893,-1.289,-1.2894,-1.2921,-1.2924,-1.2926,-1.2939,-1.2943,-1.2893,-1.2893,-1.2893,0,-1.2317,-1.2377,-1.2414,-1.2454,-1.2484,-1.2514,-1.2551,-1.2583,-1.2646,-1.2666,-1.2666,-1.2758,-1.2792,-1.2851,-1.2859,-1.2879,-1.2891,-1.2883,-1.2921,-1.2924,-1.2926,-1.2939,-1.2943,-1.2893,-1.2893,-1.2893,-1.2893,0,-1.2363,-1.2405,-1.2428,-1.2489,-1.2521,-1.2559,-1.2602,-1.263,-1.2651,-1.2682,-1.2734,-1.2777,-1.2829,-1.2845,-1.2864,-1.2906,-1.2906,-1.2913,-1.2913,-1.2928,-1.294,-1.2945,-1.2892,-1.2892,-1.2892,-1.2892,0,0,-1.236,-1.2444,-1.2451,-1.248,-1.2542,-1.2575,-1.2615,-1.2667,-1.269,-1.2733,-1.2769,-1.2829,-1.2838,-1.2868,-1.2892,-1.2917,-1.2941,-1.2921,-1.2923,-1.2924,-1.2991,-1.2985,-1.299,-1.2952,-1.2953,-1.2954,-1.2987,0,-1.2384,-1.2458,-1.2494,-1.2552,-1.2592,-1.2623,-1.2658,-1.27,-1.273,-1.2769,-1.2802,-1.2845,-1.2852,-1.2871,-1.2896,-1.2932,-1.2955,-1.2931,-1.2985,-1.2987,-1.2972,-1.2996,-1.2989,-1.3019,-1.2992,-1.2993,-1.2994,0,-1.2422,-1.2466,-1.2529,-1.2588,-1.2606,-1.2637,-1.2688,-1.2724,-1.2773,-1.2794,-1.2829,-1.2853,-1.2898,-1.2895,-1.2958,-1.294,-1.2965,-1.2987,-1.2989,-1.2995,-1.2991,-1.3003,-1.3029,-1.3033,-1.3001,-1.3001,-1.3,0,-1.2414,-1.2489,-1.2537,-1.2561,-1.2631,-1.2652,-1.2682,-1.273,-1.276,-1.2805,-1.2825,-1.2874,-1.29,-1.2938,-1.2975,-1.297,-1.3034,-1.3035,-1.3053,-1.3052,-1.3064,-1.3063,-1.3094,-1.308,-1.308,-1.308,-1.308,0,-1.2437,-1.2474,-1.2535,-1.2564,-1.2607,-1.2648,-1.269,-1.2722,-1.2766,-1.2802,-1.2832,-1.2865,-1.2913,-1.2952,-1.2982,-1.303,-1.3041,-1.3059,-1.3067,-1.3057,-1.3054,-1.3073,-1.3072,-1.3081,-1.3081,-1.3081,-1.3081,0,-1.2435,-1.2477,-1.2531,-1.2594,-1.2611,-1.264,-1.2693,-1.2723,-1.2756,-1.2802,-1.2815,-1.2867,-1.2915,-1.2957,-1.302,-1.304,-1.309,-1.3098,-1.3073,-1.3077,-1.3093,-1.3091,-1.3138,-1.3146,-1.3126,-1.3126,-1.3126,0,-1.2447,-1.2476,-1.2543,-1.257,-1.26,-1.2643,-1.2674,-1.2716,-1.2747,-1.2806,-1.2829,-1.288,-1.2923,-1.3,-1.3043,-1.3092,-1.3102,-1.3115,-1.311,-1.3099,-1.3103,-1.3101,-1.3104,-1.3115,-1.3115,-1.3115,-1.3115,0,-1.2464,-1.2484,-1.2527,-1.2579,-1.2615,-1.2658,-1.2701,-1.2721,-1.2772,-1.2805,-1.2856,-1.289,-1.2956,-1.3006,-1.3061,-1.3092,-1.3112,-1.3117,-1.3124,-1.3114,-1.3098,-1.3107,-1.3074,-1.3115,-1.3115,-1.3115,-1.3115,-1.3115,-1.2469,-1.2498,-1.255,-1.2598,-1.2635,-1.2675,-1.2707,-1.2745,-1.2788,-1.2846,-1.2869,-1.2921,-1.2971,-1.3046,-1.3078,-1.312,-1.3122,-1.3132,-1.3134,-1.3136,-1.3135,-1.3092,-1.313,-1.313,-1.313,-1.313,-1.313,0,-1.2488,-1.2524,-1.2568,-1.2628,-1.2666,-1.2684,-1.2733,-1.2764,-1.2809,-1.2855,-1.2897,-1.2956,-1.3006,-1.3054,-1.3107,-1.3131,-1.3142,-1.3143,-1.3142,-1.3149,-1.3129,-1.3118,-1.3134,-1.3134,-1.3134,-1.3134,-1.3134,-1.3134,-1.2502,-1.2552,-1.2579,-1.2648,-1.2683,-1.2735,-1.2762,-1.28,-1.2836,-1.2901,-1.2943,-1.2975,-1.3022,-1.3078,-1.3125,-1.3138,-1.3156,-1.3155,-1.3171,-1.3151,-1.315,-1.3149,-1.3139,-1.3159,-1.3159,-1.3187,-1.3187,-1.3187]},{"header":{"parameterUnit":"m.s-1","parameterCategory":1,"la1":30.2991,"la2":30.254,"lo1":-89.0895,"lo2":-89.0444,"dy":0.0017,"dx":0.0017,"nx":28,"ny":28,"refTime":"2025-05-01T09:00:00:Z","depth":0,"parameterNumber":3,"parameterNumberName":"V-component_of_WINDS"},"data":[0,0,0,0,0,0,0,0,0,0,0,0,0,0,0,0,0,0,0,0,0,0,0,0,0,0,0,0,0,0,0,0,0,0,0,0,0,0,0,0,0,0,0,0,0,0,0,0,0,0,0,0,0,0,0,0,0,0,3.7702,3.7702,0,3.7632,3.7631,3.763,3.7546,3.7544,3.7543,3.7542,3.7468,3.7468,3.7467,0,0,0,0,0,0,0,0,0,0,0,0,0,3.7764,3.7763,3.7702,3.7702,3.7701,3.7632,3.7631,3.763,3.7546,3.7544,3.7543,3.7541,3.7469,3.7468,3.7467,0,0,0,0,0,0,0,0,0,0,0,0,0,3.772,3.7763,3.7703,3.7651,3.7645,3.7632,3.7631,3.7629,3.7546,3.7544,3.7542,3.754,3.7469,3.7468,3.7467,3.7499,0,0,3.7463,3.7463,0,0,0,0,0,0,0,0,3.7722,3.7717,3.7659,3.7654,3.7648,3.7595,3.7625,3.7586,3.7547,3.7584,3.7542,3.754,3.7512,3.7507,3.7498,3.7495,3.7492,3.7463,3.7463,3.7462,3.7462,0,0,0,0,0,0,0,3.7725,3.772,3.7674,3.7658,3.7652,3.763,3.7622,3.7617,3.756,3.758,3.7574,3.7567,3.7509,3.75,3.7496,3.7491,3.7463,3.7462,3.7462,3.7461,3.7509,3.7511,0,0,0,0,0,0,3.7736,3.7723,3.7677,3.7672,3.7681,3.7631,3.7621,3.7614,3.756,3.7549,3.7569,3.7563,3.7503,3.7497,3.7493,3.7526,3.7462,3.7461,3.746,3.7507,3.751,3.7512,0,0,0,0,0,0,3.7738,3.7733,3.7679,3.7696,3.7687,3.7632,3.7625,3.7614,3.7605,3.7551,3.754,3.757,3.7501,3.7495,3.7498,3.7522,3.7461,3.746,3.7505,3.7508,3.7511,3.7592,0,0,0,0,0,0,3.774,3.7734,3.7746,3.7697,3.7687,3.7686,3.7626,3.7614,3.7603,3.7595,3.7549,3.7539,3.7499,3.75,3.7497,3.7519,3.7459,3.7502,3.7506,3.751,3.7587,3.7597,3.7606,0,0,0,0,0,3.7743,3.7772,3.7747,3.7742,3.7701,3.7687,3.7682,3.7634,3.7605,3.7616,3.7582,3.7541,3.752,3.7501,3.7496,3.7519,3.7501,3.7505,3.7509,3.7582,3.7595,3.7606,0,0,0,0,0,0,3.7825,3.7764,3.7736,3.7751,3.7725,3.7673,3.7686,3.765,3.7632,3.7625,3.7567,3.7557,3.7567,3.7543,3.7523,3.7547,3.7504,3.7508,3.7561,3.7573,3.7583,3.7587,3.7458,0,0,0,0,0,3.7845,3.784,3.7787,3.7805,3.7793,3.7742,3.7735,3.77,3.7671,3.766,3.7625,3.7598,3.7585,3.7578,3.7563,3.7583,3.7571,3.7597,3.7607,3.7615,3.7618,3.7626,3.7636,3.7526,3.7526,3.7526,0,0,3.7886,3.7852,3.7852,3.782,3.7796,3.7791,3.7733,3.7731,3.7726,3.7659,3.766,3.7634,3.76,3.7611,3.7614,3.7592,3.7646,3.762,3.7627,3.7626,3.7631,3.7642,3.7651,3.7529,3.7528,3.7528,0,0,3.7958,3.7932,3.7943,3.7921,3.7885,3.7851,3.7854,3.7808,3.7788,3.7787,3.7736,3.773,3.771,3.7687,3.7673,3.7736,3.7698,3.7733,3.7784,3.7792,3.78,3.7808,3.7829,3.7837,3.7737,3.7738,3.7738,0,3.8013,3.8004,3.7954,3.7954,3.7941,3.7881,3.7891,3.7871,3.7833,3.7825,3.7801,3.7773,3.7746,3.775,3.7766,3.7757,3.7757,3.7738,3.7803,3.781,3.7816,3.7836,3.7844,3.7742,3.7741,3.7741,3.7741,0,3.8073,3.8067,3.8081,3.8045,3.8033,3.8039,3.7989,3.7984,3.7951,3.7919,3.7919,3.7885,3.7861,3.786,3.7828,3.786,3.7847,3.7814,3.777,3.7832,3.7849,3.7856,3.7748,3.7747,3.7745,3.7744,0,0,3.8193,3.813,3.8136,3.8118,3.8075,3.8069,3.8072,3.805,3.8045,3.8021,3.8021,3.8005,3.7974,3.7958,3.7923,3.793,3.7981,3.7895,3.7894,3.7911,3.8012,3.8036,3.8046,3.7955,3.7957,3.7958,3.8014,0,3.8256,3.8257,3.8212,3.8225,3.8219,3.8161,3.8163,3.8137,3.8107,3.8097,3.8064,3.8053,3.8014,3.8004,3.8008,3.7974,3.8,3.7969,3.7954,3.7954,3.7963,3.8055,3.8081,3.8136,3.8021,3.8022,3.8023,0,3.8329,3.8309,3.8322,3.8277,3.8272,3.8275,3.825,3.8242,3.821,3.8188,3.8171,3.8131,3.8129,3.8089,3.8086,3.8066,3.8057,3.8039,3.804,3.8035,3.7991,3.8052,3.8153,3.8161,3.8033,3.8033,3.8032,0,3.8414,3.839,3.8394,3.8382,3.833,3.8333,3.8311,3.8278,3.8267,3.8245,3.8237,3.8216,3.8204,3.8188,3.8143,3.8119,3.8145,3.8101,3.8126,3.8127,3.8133,3.8133,3.8232,3.813,3.813,3.8129,3.8129,0,3.8488,3.8498,3.8432,3.8434,3.8443,3.8391,3.8401,3.8374,3.8345,3.834,3.829,3.8287,3.8228,3.8218,3.8183,3.8185,3.818,3.8162,3.8152,3.8166,3.8168,3.8158,3.8152,3.8132,3.8131,3.8131,3.813,0,3.8584,3.8541,3.8541,3.8492,3.848,3.8489,3.8446,3.8446,3.8414,3.8409,3.8405,3.8354,3.8339,3.8293,3.8267,3.8244,3.8256,3.8238,3.8267,3.826,3.8287,3.8284,3.8382,3.8392,3.8285,3.8286,3.8287,0,3.8633,3.8639,3.8591,3.8585,3.8565,3.8556,3.8544,3.8494,3.8484,3.8448,3.8452,3.8434,3.8416,3.8396,3.8356,3.8336,3.8316,3.8352,3.8313,3.8326,3.8315,3.8315,3.8315,3.836,3.8362,3.8363,3.8364,0,3.8725,3.8703,3.8689,3.8667,3.8655,3.8635,3.8612,3.861,3.8553,3.8544,3.8529,3.8516,3.8489,3.8471,3.8445,3.8422,3.8383,3.8377,3.8381,3.8394,3.841,3.84,3.8288,3.8374,3.8373,3.8373,3.8372,3.8372,3.8798,3.88,3.8766,3.8752,3.873,3.871,3.8707,3.8674,3.8661,3.8635,3.8606,3.8594,3.8561,3.8522,3.8502,3.8491,3.847,3.8477,3.8478,3.848,3.8486,3.8413,3.8486,3.8486,3.8486,3.8485,3.8485,0,3.8886,3.8861,3.8848,3.8818,3.8807,3.8772,3.8745,3.8738,3.8728,3.8701,3.8685,3.8667,3.8649,3.8608,3.8587,3.8586,3.8568,3.8582,3.8581,3.8576,3.8507,3.8505,3.8597,3.8597,3.8597,3.8597,3.8597,3.8597,3.893,3.8931,3.8906,3.8896,3.8871,3.8859,3.8846,3.8827,3.8805,3.8788,3.8773,3.8746,3.8713,3.8689,3.8671,3.8659,3.8653,3.8673,3.8655,3.8591,3.8581,3.8571,3.8568,3.8672,3.8672,3.8725,3.8725,3.8726]}]]